Temp
8 8 8 8 8 8 8 8 8 9 9 9 10 11 12 11 13 14 14 14 15 15 14 14 14 14 14 14 13 13 13 13 13 12 12 12 11 11 10 10 10 10 10 9
8 8 7 8 8 8 8 8 8 9 9 9 10 13 14 13 15 15 15 15 15 15 15 14 14 14 14 14 13 13 13 13 13 12 12 12 11 11 11 10 10 10 10 10
8 8 7 7 7 8 7 7 8 8 8 9 10 14 15 15 15 16 15 16 15 15 15 15 15 14 14 14 14 13 13 13 13 12 12 12 11 11 11 11 10 10 10 10
8 8 8 7 7 7 7 8 8 8 8 8 9 8 15 15 16 16 16 16 16 16 16 15 15 15 15 14 14 14 13 13 13 13 12 12 12 12 11 11 11 11 11 11
8 8 7 7 7 7 7 7 7 7 7 7 9 8 15 16 16 17 16 16 16 16 16 15 15 15 14 14 14 14 13 13 13 13 12 12 12 12 12 11 11 11 11 11
7 7 7 8 7 7 7 7 7 7 7 5 9 8 15 15 17 16 16 17 16 16 16 16 15 15 15 15 14 14 14 13 13 13 13 13 12 12 12 11 11 11 11 11
7 8 7 7 7 7 7 7 7 6 4 4 8 7 14 14 15 16 16 16 16 16 16 15 16 16 15 15 15 14 14 14 13 13 13 12 12 12 12 11 11 11 11 11
6 8 8 8 8 7 7 6 7 6 3 5 8 9 14 15 14 15 15 16 16 16 16 16 15 15 15 15 15 14 14 14 13 13 13 12 12 12 12 11 11 11 11 11
6 7 7 7 7 7 6 6 7 6 6 4 9 12 14 14 14 15 15 15 16 16 16 15 15 15 15 15 15 14 14 13 13 13 13 13 12 12 12 11 11 11 11 10
6 6 7 7 6 6 6 6 6 6 4 4 7 9 13 14 14 14 15 15 15 15 16 16 15 15 15 15 14 14 13 13 13 13 13 13 12 12 12 11 11 11 11 10
5 5 6 6 6 7 6 6 6 6 6 3 1 10 13 13 13 14 14 14 14 14 15 15 15 15 15 14 14 14 14 13 13 13 13 13 12 12 12 11 11 11 10 10
6 5 5 6 6 6 6 6 6 6 6 6 5 7 12 13 13 13 14 14 14 14 14 14 14 14 14 14 14 14 14 14 13 13 13 12 12 12 12 11 11 11 10 10
6 5 5 5 5 6 6 7 6 6 6 6 3 8 11 12 12 13 13 14 13 12 12 12 13 14 14 14 14 14 14 13 13 13 13 12 12 12 12 11 11 10 10 10
4 5 6 6 7 6 6 6 7 6 5 5 6 7 10 11 12 12 11 11 11 11 11 11 12 13 13 13 13 13 13 13 13 12 12 12 12 12 11 11 10 10 10 9
3 3 4 5 5 5 5 5 5 6 6 5 7 7 8 9 10 11 12 12 12 12 12 12 12 12 12 13 13 13 13 13 13 12 12 12 12 11 11 11 10 10 10 9
2 2 3 3 4 4 4 4 5 5 5 5 5 7 9 10 10 11 11 11 11 12 12 11 12 12 12 12 13 12 12 12 12 12 13 12 12 11 11 11 10 10 10 9
0 0 1 2 2 3 3 5 5 6 7 6 6 10 9 9 10 10 10 10 11 11 11 11 11 12 12 13 12 12 12 12 12 12 12 12 12 11 11 11 10 10 10 9
-1 -1 -1 -0 1 -0 3 4 5 5 6 7 8 8 9 10 9 8 8 9 10 11 12 11 12 12 12 12 12 12 12 12 12 12 11 11 11 11 11 11 10 10 10 9
-1 -1 -2 -1 0 2 3 4 4 5 6 6 6 7 9 9 8 8 7 9 9 10 11 12 12 12 12 12 12 12 12 12 12 12 12 12 12 12 11 11 10 10 10 9
-0 -0 -1 -1 -1 -0 3 4 4 4 4 7 6 7 7 6 7 7 7 7 7 8 10 10 11 13 12 12 12 12 12 12 12 12 12 12 12 12 11 10 10 10 9 9
-2 -2 -2 -2 -1 -0 1 2 3 2 5 6 5 5 5 5 5 6 7 7 7 7 8 9 10 10 10 11 11 12 12 12 12 12 12 12 12 12 11 10 10 9 9 8
-4 -3 -2 -2 -2 -1 0 1 1 2 2 5 4 5 5 5 5 5 7 7 7 7 7 7 8 8 8 9 9 10 11 11 11 12 12 11 11 11 11 11 10 9 9 8
-6 -4 -4 -3 -2 -0 -0 1 1 -0 0 2 3 4 4 5 4 5 5 6 6 6 6 7 7 8 8 8 9 9 9 10 10 11 11 11 11 11 11 10 10 9 8 8
-7 -6 -8 -8 -3 -3 -1 -0 -1 -1 -1 1 1 2 3 3 4 4 5 4 5 5 5 6 6 7 7 8 8 9 9 9 9 10 10 10 10 10 10 10 9 9 9 8
-8 -7 -7 -7 -7 -5 -4 -4 -4 -3 -2 -0 1 1 3 3 3 3 3 4 4 4 5 5 5 6 6 7 7 8 8 9 9 9 9 9 10 10 10 9 9 9 9 8
-7 -6 -7 -7 -5 -6 -5 -4 -4 -4 -3 -2 -2 -1 0 1 3 3 3 4 4 3 3 4 5 5 6 6 7 6 7 8 8 8 8 8 8 8 9 9 9 9 8 7
Height
3162 3163 3162 3162 3162 3161 3161 3160 3159 3157 3156 3152 3149 3144 3145 3145 3143 3145 3147 3150 3152 3155 3158 3159 3161 3163 3165 3167 3169 3171 3172 3174 3175 3176 3178 3179 3180 3181 3182 3182 3181 3181 3181 3180
3163 3162 3161 3161 3161 3161 3159 3158 3157 3155 3152 3150 3146 3138 3139 3140 3138 3141 3143 3145 3148 3152 3153 3155 3157 3160 3162 3164 3166 3168 3170 3171 3173 3175 3176 3177 3178 3180 3181 3181 3180 3180 3180 3179
3159 3161 3160 3160 3160 3159 3158 3157 3155 3153 3150 3148 3143 3133 3133 3134 3134 3136 3138 3140 3143 3146 3149 3152 3154 3157 3159 3161 3163 3165 3167 3169 3171 3172 3174 3176 3177 3178 3179 3180 3179 3179 3179 3178
3157 3157 3158 3158 3158 3158 3156 3155 3154 3152 3150 3148 3146 3136 3127 3128 3128 3130 3133 3135 3139 3142 3145 3147 3149 3152 3156 3159 3160 3162 3164 3166 3168 3170 3172 3174 3175 3177 3178 3178 3178 3179 3179 3178
3156 3155 3155 3155 3156 3157 3156 3154 3152 3150 3148 3146 3142 3142 3120 3123 3123 3126 3129 3132 3135 3138 3141 3144 3147 3150 3153 3154 3157 3159 3161 3163 3165 3167 3169 3171 3173 3174 3176 3177 3177 3178 3177 3177
3152 3152 3153 3153 3154 3154 3154 3153 3150 3147 3146 3144 3138 3139 3116 3117 3120 3122 3125 3128 3131 3134 3137 3141 3143 3145 3148 3151 3153 3156 3158 3160 3162 3164 3167 3169 3171 3173 3174 3175 3176 3176 3176 3176
3149 3147 3148 3150 3151 3152 3152 3153 3151 3147 3145 3141 3137 3136 3117 3119 3119 3119 3121 3124 3128 3131 3134 3137 3139 3141 3144 3147 3150 3153 3155 3157 3160 3162 3164 3166 3168 3170 3171 3173 3174 3174 3174 3173
3147 3145 3144 3144 3146 3148 3150 3151 3151 3149 3147 3139 3136 3126 3116 3117 3117 3117 3117 3119 3122 3124 3129 3133 3136 3138 3141 3144 3146 3149 3151 3154 3156 3159 3161 3163 3165 3167 3169 3170 3171 3171 3171 3170
3144 3143 3142 3143 3143 3146 3146 3147 3149 3147 3144 3142 3129 3120 3116 3116 3115 3114 3114 3116 3119 3122 3124 3128 3132 3134 3137 3140 3143 3146 3148 3150 3153 3156 3157 3160 3162 3164 3165 3166 3167 3167 3167 3167
3143 3142 3140 3141 3142 3142 3143 3146 3148 3147 3146 3141 3124 3119 3114 3114 3113 3111 3112 3114 3117 3118 3122 3124 3127 3130 3133 3136 3139 3141 3143 3146 3149 3152 3154 3156 3158 3160 3160 3161 3163 3163 3163 3163
3140 3141 3139 3138 3138 3139 3141 3141 3144 3146 3143 3140 3136 3116 3113 3113 3112 3111 3111 3111 3112 3115 3118 3122 3125 3127 3129 3131 3134 3137 3139 3141 3144 3147 3149 3151 3153 3155 3155 3157 3158 3158 3158 3158
3138 3137 3134 3135 3136 3136 3135 3136 3137 3139 3137 3134 3130 3107 3113 3111 3111 3111 3110 3110 3111 3113 3115 3117 3119 3122 3124 3127 3129 3132 3134 3136 3139 3142 3144 3146 3147 3149 3150 3152 3152 3153 3153 3153
3134 3132 3132 3130 3131 3129 3127 3128 3130 3131 3130 3124 3129 3105 3107 3108 3108 3108 3108 3108 3108 3109 3112 3114 3115 3117 3120 3122 3124 3127 3129 3132 3133 3135 3137 3139 3141 3142 3145 3146 3146 3146 3147 3147
3130 3127 3126 3125 3125 3125 3124 3124 3124 3124 3121 3118 3100 3101 3103 3107 3107 3107 3108 3109 3106 3107 3109 3109 3109 3111 3113 3116 3118 3121 3123 3126 3128 3129 3130 3132 3135 3137 3139 3140 3139 3139 3140 3139
3124 3119 3121 3119 3120 3118 3116 3116 3117 3114 3113 3107 3097 3095 3095 3098 3099 3100 3101 3104 3103 3104 3104 3104 3105 3105 3106 3108 3111 3114 3116 3118 3121 3122 3124 3126 3129 3130 3131 3132 3132 3132 3132 3132
3117 3112 3113 3110 3113 3111 3103 3104 3104 3104 3103 3095 3097 3076 3096 3095 3095 3093 3095 3096 3093 3093 3094 3094 3096 3097 3098 3100 3102 3105 3108 3111 3113 3114 3116 3119 3121 3122 3123 3124 3125 3124 3125 3125
3111 3110 3110 3103 3107 3104 3086 3088 3091 3091 3089 3089 3084 3071 3087 3084 3086 3086 3084 3081 3078 3079 3080 3082 3084 3088 3090 3092 3093 3095 3099 3101 3102 3104 3107 3109 3112 3113 3114 3115 3116 3116 3116 3117
3102 3105 3108 3102 3105 3098 3072 3078 3082 3079 3079 3082 3076 3076 3077 3077 3079 3076 3077 3071 3069 3069 3071 3073 3075 3076 3079 3082 3083 3086 3087 3089 3091 3093 3096 3099 3102 3104 3105 3105 3106 3107 3107 3107
3096 3100 3100 3098 3095 3075 3064 3071 3074 3073 3067 3074 3072 3072 3072 3073 3068 3071 3067 3064 3060 3060 3059 3059 3061 3064 3067 3071 3076 3077 3078 3080 3080 3082 3085 3089 3091 3093 3094 3095 3096 3097 3098 3098
3084 3088 3090 3088 3082 3074 3063 3065 3071 3068 3059 3064 3063 3060 3064 3068 3062 3063 3060 3058 3055 3051 3051 3051 3053 3055 3057 3060 3063 3064 3066 3069 3070 3074 3076 3079 3079 3081 3081 3084 3085 3086 3087 3088
3078 3077 3072 3072 3069 3056 3057 3063 3065 3068 3067 3061 3060 3061 3060 3058 3059 3058 3055 3053 3051 3049 3045 3045 3045 3045 3045 3047 3050 3053 3056 3057 3062 3064 3065 3064 3066 3068 3069 3071 3072 3074 3075 3075
3066 3067 3061 3058 3058 3050 3052 3056 3060 3056 3053 3053 3047 3047 3045 3044 3043 3045 3047 3047 3046 3046 3045 3043 3041 3041 3040 3040 3041 3043 3044 3047 3047 3048 3050 3051 3053 3055 3056 3057 3059 3059 3060 3061
3053 3053 3050 3047 3038 3039 3038 3040 3040 3038 3038 3041 3036 3039 3036 3035 3036 3038 3036 3038 3039 3039 3039 3038 3038 3038 3036 3035 3035 3036 3036 3036 3036 3037 3038 3039 3040 3041 3042 3043 3044 3045 3046 3047
3043 3046 3038 3036 3030 3029 3027 3029 3031 3030 3027 3027 3026 3026 3026 3024 3025 3025 3028 3028 3027 3028 3029 3031 3031 3031 3031 3029 3028 3028 3028 3028 3028 3028 3028 3029 3029 3029 3030 3030 3031 3032 3033 3034
3033 3032 3028 3021 3018 3019 3018 3020 3020 3017 3016 3014 3016 3016 3016 3013 3013 3014 3016 3018 3018 3018 3020 3019 3020 3022 3023 3021 3020 3019 3019 3019 3018 3019 3019 3019 3020 3020 3020 3020 3021 3021 3022 3024
3024 3018 3016 3009 3013 3010 3004 3007 3009 3003 3001 3003 3004 3003 3006 3005 3003 3003 3003 3006 3007 3008 3009 3010 3011 3012 3013 3011 3011 3010 3009 3008 3008 3008 3009 3009 3009 3010 3010 3010 3010 3011 3012 3012
Wind_Speed
9 9 6 6 6 8 7 11 16 17 17 21 18 20 13 14 20 22 23 24 22 21 20 22 20 19 17 16 14 13 12 11 10 10 9 9 9 7 6 4 3 1 1 3
10 8 9 9 8 9 10 15 18 17 13 20 20 25 15 22 24 23 23 23 21 21 23 22 20 19 17 16 16 15 14 12 12 12 12 11 10 8 6 5 4 3 2 3
12 5 9 10 10 11 13 16 17 18 19 21 24 27 17 20 24 23 25 23 24 24 23 22 21 18 18 17 16 16 15 15 14 14 13 13 11 9 8 7 5 3 2 3
11 11 14 14 14 13 17 14 13 14 15 9 15 14 20 17 24 24 24 26 23 23 24 23 21 20 18 17 19 18 17 16 16 16 15 15 14 13 10 9 7 4 3 2
7 8 8 10 10 10 12 14 15 17 18 22 17 9 21 10 21 21 21 22 22 22 22 23 21 19 19 21 19 18 18 18 18 17 18 17 16 15 13 11 9 6 3 1
19 17 16 12 10 10 11 14 17 19 17 6 6 11 18 8 14 16 18 20 21 22 22 23 23 24 23 23 21 20 20 20 20 20 20 20 20 18 16 13 10 8 5 2
19 20 20 20 18 18 17 13 6 3 1 6 5 9 23 17 6 10 18 21 22 22 23 24 25 25 24 23 22 21 21 21 22 21 22 22 22 20 18 16 13 10 7 5
7 6 9 13 17 17 9 12 5 4 2 6 14 10 4 5 4 11 17 23 26 29 27 26 26 25 24 24 23 23 23 23 23 22 22 23 24 21 20 18 15 13 10 8
6 7 8 9 7 8 7 12 12 7 12 5 9 18 27 21 13 17 13 20 22 26 29 27 27 27 26 26 25 24 24 24 24 23 23 23 23 23 21 20 18 15 13 12
8 8 11 9 13 13 14 5 5 7 3 5 9 12 15 13 11 4 9 10 14 19 26 27 27 28 27 27 27 27 26 25 24 24 24 23 23 23 24 22 20 18 17 15
12 15 6 10 13 18 17 18 13 8 8 4 3 9 5 8 8 8 5 10 13 12 17 21 23 25 28 29 30 28 27 27 26 26 25 24 24 24 25 23 23 21 20 18
6 10 15 19 21 19 16 16 17 12 8 11 7 25 29 28 27 20 13 6 11 10 12 17 21 25 29 30 30 29 28 28 26 26 27 25 26 27 26 24 24 24 22 22
7 13 11 5 13 23 27 27 31 31 30 34 10 15 3 10 5 4 9 6 10 13 10 16 21 24 27 29 30 29 28 27 27 28 29 29 29 29 27 25 27 27 26 25
17 22 22 19 13 9 13 17 18 29 35 31 52 51 48 30 20 14 16 13 5 7 9 14 23 25 27 29 30 30 29 28 29 30 31 31 30 29 28 27 29 29 28 28
17 22 25 28 28 33 36 35 31 31 29 39 41 44 46 42 39 34 33 34 27 22 26 23 20 27 28 29 31 32 31 31 30 32 32 31 30 30 30 30 31 31 31 30
25 25 26 32 29 30 40 40 39 41 45 53 51 62 46 44 42 41 36 33 31 34 35 35 29 24 30 31 33 33 33 33 33 34 33 32 31 31 31 32 33 34 32 32
28 26 18 28 20 25 44 44 50 52 52 54 55 60 50 51 46 43 41 39 39 38 34 31 35 28 27 34 36 37 34 35 36 37 35 34 33 33 33 33 35 36 34 34
40 30 27 31 25 15 33 24 26 33 37 37 41 38 35 29 29 31 29 35 35 34 37 36 35 38 36 33 34 38 40 40 40 40 39 38 36 36 37 37 37 37 36 36
40 39 34 28 28 43 51 27 17 24 32 19 22 24 20 20 27 30 31 33 36 33 33 39 41 42 41 40 36 34 38 43 45 45 43 42 40 40 41 41 40 40 40 39
29 45 45 34 15 14 23 4 13 14 27 13 12 19 28 33 28 9 6 14 16 23 31 33 34 41 43 42 42 43 43 37 41 41 44 44 45 45 45 43 43 43 43 42
24 33 43 48 36 40 49 33 15 28 10 1 8 16 14 23 26 18 23 18 21 21 18 25 28 29 33 40 42 44 46 47 44 41 41 45 47 49 49 47 47 45 45 46
37 28 33 39 36 37 42 18 26 42 47 46 47 44 41 41 36 32 28 30 28 23 19 15 15 17 19 22 27 32 37 37 42 45 47 46 45 47 50 49 49 49 48 48
23 33 26 19 23 37 20 31 29 26 27 38 45 42 43 45 40 30 24 26 25 29 25 21 20 15 15 16 17 18 21 25 28 31 34 39 43 46 49 48 48 47 48 49
43 40 42 42 55 48 36 41 36 37 36 34 37 37 39 40 40 37 33 25 27 26 25 23 23 23 21 21 21 22 21 22 22 25 29 31 34 35 38 43 48 50 49 49
40 36 47 51 58 57 52 47 49 53 49 49 52 49 50 53 53 53 52 47 35 31 34 33 30 27 24 26 27 28 28 29 29 28 28 29 30 31 33 35 37 40 42 45
54 59 57 56 55 53 60 60 56 52 55 54 52 53 45 45 56 55 56 54 43 36 32 34 30 32 32 33 29 26 27 29 30 31 31 31 31 31 31 31 33 35 37 39
Wind_Direction
259 255 241 230 249 251 282 294 301 311 302 297 301 287 236 241 236 221 216 215 213 210 210 217 220 222 222 222 224 227 223 210 199 198 195 194 196 193 190 188 175 141 68 34
261 270 232 237 247 254 280 297 304 307 303 300 300 284 260 234 232 224 222 218 214 212 217 218 221 227 226 221 216 217 213 204 200 197 197 198 197 192 185 180 175 155 108 51
258 248 238 232 250 271 282 293 304 300 303 302 302 294 269 242 241 231 226 222 218 215 219 221 221 224 223 216 211 207 205 203 200 200 198 196 194 188 188 182 173 157 107 56
270 257 247 253 261 275 288 295 295 299 308 309 310 295 285 242 239 236 225 227 222 219 218 219 214 212 215 206 203 203 203 203 203 201 198 196 192 191 189 185 179 166 130 82
242 256 256 258 272 276 283 288 289 291 295 302 297 255 283 262 242 234 227 226 219 215 213 213 211 207 203 206 201 202 204 205 205 201 200 198 195 195 192 192 189 182 168 112
249 254 258 262 269 273 287 294 296 285 282 281 290 229 287 274 244 229 225 219 210 207 204 205 204 204 207 206 203 207 208 208 206 206 204 201 201 199 199 200 198 198 200 220
264 259 256 257 259 267 275 282 303 304 328 227 292 269 256 296 273 234 224 220 217 216 211 210 212 212 211 209 209 211 210 212 210 209 208 207 207 205 207 208 211 214 223 242
266 276 236 248 247 254 269 247 235 272 259 291 300 247 271 338 320 273 236 224 218 214 217 217 218 217 216 214 213 213 214 215 215 214 214 214 214 213 215 218 222 227 238 254
237 251 247 238 226 215 237 234 247 264 285 287 251 267 283 281 297 271 240 232 230 228 218 216 218 218 215 215 217 216 216 218 218 218 221 223 223 223 225 227 231 236 246 258
246 264 256 244 230 224 226 221 225 226 272 276 282 281 260 292 313 263 237 226 243 239 224 216 216 217 217 215 218 219 219 222 222 222 225 227 228 229 231 235 237 243 250 260
232 238 247 237 235 242 231 229 230 245 255 210 306 273 290 316 317 358 288 242 227 232 224 223 219 219 220 218 221 224 224 226 228 229 230 231 232 235 238 240 242 247 253 261
280 242 255 264 263 254 244 247 236 226 224 225 256 267 268 283 279 294 321 265 229 223 238 227 219 220 222 222 224 226 228 231 232 233 235 236 237 239 241 244 247 250 255 260
258 236 253 273 246 248 243 249 246 246 249 251 242 256 272 257 245 327 316 255 213 205 225 249 237 229 226 225 228 230 232 234 234 235 237 238 240 243 246 248 250 253 256 261
250 249 245 244 264 268 263 278 274 253 243 248 250 262 257 254 264 278 290 290 234 245 281 279 245 236 233 230 230 233 234 236 237 238 241 243 245 247 248 248 251 255 257 261
259 264 255 257 262 269 271 272 269 257 259 246 262 268 272 274 277 279 277 271 265 274 282 291 277 250 240 235 234 237 236 236 237 241 244 247 249 250 250 249 252 256 259 263
260 278 276 272 263 265 270 263 260 259 261 262 268 269 276 283 284 286 290 289 277 268 268 272 272 256 246 238 236 237 239 239 240 243 245 247 249 250 252 253 255 258 261 263
263 268 282 278 283 282 272 262 262 264 263 263 263 275 286 284 288 292 292 284 272 258 255 254 258 255 251 241 237 237 238 240 241 243 245 247 249 251 253 255 257 259 262 264
259 266 268 273 282 270 260 268 265 265 269 270 273 281 284 288 292 291 299 290 277 267 255 250 251 252 248 244 243 241 236 237 239 242 243 245 248 251 253 254 256 260 263 264
246 251 261 257 252 261 262 249 256 266 272 272 278 287 286 292 289 297 296 287 281 274 261 252 245 246 251 246 243 243 242 244 241 241 242 244 246 248 252 253 256 260 262 263
257 243 245 243 239 253 253 279 298 313 285 293 287 283 265 280 284 273 310 328 318 294 265 262 257 250 250 252 248 245 240 249 249 249 251 249 246 248 250 253 255 258 261 264
269 252 239 240 243 254 256 253 265 294 254 64 345 319 296 296 294 286 299 303 315 324 302 265 265 261 252 247 248 250 250 256 255 256 255 251 249 248 250 251 252 255 258 260
253 254 239 242 238 249 250 263 249 257 262 256 270 268 267 271 268 275 275 286 298 299 312 285 261 258 259 259 258 256 257 258 255 255 255 253 252 250 252 253 254 253 253 255
273 240 250 247 230 226 231 232 227 237 250 245 251 252 258 264 267 266 273 269 285 289 291 289 279 270 269 266 262 260 259 258 257 257 256 255 254 253 253 253 254 252 251 252
272 271 278 284 248 252 240 238 252 256 265 252 260 259 261 264 264 266 265 269 266 269 280 277 278 274 264 267 267 265 262 260 263 265 263 260 260 261 261 259 255 253 253 253
272 270 279 282 284 286 271 273 273 259 263 256 251 258 254 261 264 273 275 269 270 272 266 272 274 273 271 270 269 271 274 273 272 273 275 274 271 268 266 264 263 261 258 257
265 272 276 278 285 282 286 283 291 287 268 261 270 258 254 256 260 266 270 271 268 270 271 270 278 280 274 274 274 278 276 273 274 274 275 278 278 276 273 270 267 266 263 260